Tracking 33850 objects as of 19-Apr-2026
HD Live streaming from Space Station
objects crossing your sky now

STARLINK-31654

Track STARLINK-31654 now!
10-day predictions
STARLINK-31654 is classified as:


NORAD ID: 59858
Int'l Code: 2024-098A
Perigee: 489.5 km
Apogee: 490.8 km
Inclination: 43.0 °
Period: 94.3 minutes
Semi major axis: 6861 km
RCS: Unknown
Launch date: May 24, 2024
Source: United States (US)
Launch site: AIR FORCE EASTERN TEST RANGE (AFETR)
Your satellite tracking list
Your tracking list is empty




NASA's NSSDC Master Catalog

Two Line Element Set (TLE):
1 59858U 24098A   26108.52052212 -.00001255  00000-0 -36083-4 0  9993
2 59858  43.0037  45.6257 0000963 265.8730  94.2012 15.27587070108012
Source of the keplerian elements: AFSPC